Temp_Advection
nan nan nan nan nan nan nan nan nan nan nan nan nan nan nan nan nan nan nan nan nan nan nan nan nan nan nan nan nan nan nan nan nan nan nan nan nan nan nan nan nan nan nan nan nan nan nan nan nan nan nan nan
nan 0 0 0 0 0 0 0 0 0 0 0 0 -0 -0 -0 0 0 0 0 0 -0 -0 0 -0 -0 -1 -0 -0 -0 -0 0 0 0 0 -0 -0 -0 0 -0 -0 -0 -0 -0 -0 -0 -0 0 0 0 0 nan
nan 0 0 0 0 0 0 0 0 0 0 0 0 0 0 0 0 0 0 0 0 -0 -0 0 -0 -0 -1 -0 -0 -0 -0 0 0 0 0 0 0 0 0 -0 0 0 0 0 -0 0 -0 0 0 0 0 nan
nan 0 0 0 0 0 0 0 0 0 0 0 0 0 0 0 0 0 0 0 -0 -0 -0 -0 -0 -0 -0 -0 -0 -0 0 0 0 0 0 0 0 0 0 -0 0 0 0 0 0 0 0 0 0 0 0 nan
nan 0 0 0 0 0 0 0 0 0 0 0 0 0 0 0 0 0 0 0 -0 -0 -0 -0 -0 -0 -0 -0 -0 -0 0 0 0 0 0 0 0 0 0 0 0 0 0 0 0 0 0 0 0 0 0 nan
nan 0 0 0 0 0 0 0 0 0 0 0 0 0 0 0 0 0 -0 -0 -0 -0 0 -0 -0 -0 -0 -0 -1 -0 0 0 0 0 0 0 0 0 0 0 0 0 0 0 0 0 0 0 -0 0 0 nan
nan 0 0 0 0 0 0 0 0 0 0 0 0 0 0 -0 -0 -0 0 0 -0 0 0 -0 0 -0 -0 -1 -1 -0 -0 0 0 0 0 0 0 0 0 0 0 0 0 0 0 0 0 0 0 0 0 nan
nan 0 0 0 0 0 0 0 0 0 0 0 0 0 0 -0 -0 0 0 -0 0 0 0 0 0 -0 -0 -1 -0 0 0 0 0 0 0 0 0 0 0 0 0 0 0 0 0 0 0 0 0 0 0 nan
nan 0 0 0 0 0 0 0 0 0 0 0 0 0 0 -0 -0 -0 -0 0 0 0 0 0 -0 -0 -0 -1 -0 0 0 0 0 0 0 0 0 0 0 0 0 0 0 0 0 0 0 0 0 0 0 nan
nan 0 0 0 0 0 0 0 0 0 0 0 0 0 0 -0 -0 -0 0 0 0 0 -0 -0 -0 -0 -0 -0 -0 0 0 0 0 0 -0 0 0 0 0 0 0 0 0 0 0 0 0 0 0 0 0 nan
nan 0 0 0 0 0 0 0 0 0 0 0 0 0 0 -0 -0 -0 0 0 0 -0 -0 -0 -0 -0 -0 -0 0 0 0 0 0 0 0 0 0 0 0 0 0 0 0 0 0 0 0 0 0 0 0 nan
nan 0 0 0 0 0 0 0 0 0 0 0 0 0 0 0 -0 -0 -0 -0 -0 -0 -0 -0 -0 -0 -0 -0 0 0 0 0 0 0 0 0 0 0 0 0 0 0 0 0 0 0 0 0 0 0 0 nan
nan 0 0 0 0 0 0 0 0 0 0 0 0 0 0 0 0 -0 -0 -0 -0 -0 -0 -0 -0 0 0 0 0 0 0 0 0 0 0 0 0 0 0 0 0 0 0 0 0 0 0 0 0 0 0 nan
nan 0 0 0 0 0 0 0 0 0 0 0 0 0 0 0 0 -0 -0 -0 -0 -0 -0 -0 -0 -0 0 -0 0 0 0 0 0 0 0 0 0 0 0 0 0 0 0 0 0 0 0 0 0 0 0 nan
nan 0 0 0 0 0 0 0 0 0 0 0 0 0 0 0 0 -0 -0 -0 -0 -0 -0 -0 -0 -0 0 -0 0 0 0 0 0 0 0 0 0 0 0 0 0 0 0 0 0 0 0 0 0 0 0 nan
nan 0 0 0 0 0 0 0 0 0 0 0 0 0 0 0 0 0 -0 -0 0 0 -0 -0 -0 -0 -0 -0 0 0 0 0 0 0 0 0 0 0 0 0 0 0 0 -0 -0 -0 -0 -0 0 0 0 nan
nan 0 0 0 0 0 0 0 0 0 0 0 0 0 0 0 0 0 0 0 0 0 -0 -0 -0 -0 -0 -0 0 0 0 0 0 0 0 0 0 0 0 0 0 0 -0 -0 -0 0 0 0 -0 0 0 nan
nan 0 0 0 0 0 0 0 0 0 0 0 0 0 0 0 0 0 0 0 -0 -0 -0 -0 -0 0 0 0 0 0 0 0 0 0 0 0 0 0 0 0 -0 -0 -0 -0 0 0 0 0 0 0 0 nan
nan 1 1 0 0 0 0 0 0 0 0 0 0 0 0 0 0 0 0 0 -0 -0 -0 -0 -0 0 0 0 0 0 0 0 0 0 0 0 0 0 0 0 0 0 -0 -0 -0 -0 0 0 0 0 0 nan
nan 1 0 0 0 0 0 0 0 0 0 0 0 1 0 0 0 0 0 -0 -0 -0 -0 -0 0 0 0 0 0 0 0 0 0 0 0 0 0 0 0 0 0 0 0 -0 -0 -0 -0 -0 -0 0 0 nan
nan 1 1 1 1 1 1 1 1 1 1 1 1 1 0 0 0 0 0 -0 -0 -0 -0 -0 0 0 0 0 0 0 0 0 0 0 0 0 0 0 0 0 -0 -0 -0 -0 -0 -0 -0 -0 -0 0 0 nan
nan 1 1 1 1 1 1 1 1 1 1 1 1 1 0 0 0 0 0 -0 -0 -0 -0 -0 0 0 0 0 0 0 0 0 0 0 0 0 0 0 0 -0 0 0 -0 -0 -0 -0 -0 -0 -0 -0 -0 nan
nan 1 1 1 1 1 1 1 1 1 1 1 1 0 0 0 0 0 -0 -0 -0 -0 0 0 0 0 1 1 0 0 0 1 0 0 0 0 0 0 0 -0 -0 -0 -0 -0 -0 -0 -0 -0 -0 -0 -0 nan
nan 1 1 1 1 1 1 1 1 1 0 0 0 0 -0 -0 -0 -0 -0 0 0 0 0 0 0 0 1 0 0 0 0 0 0 0 0 0 0 0 0 0 -0 -0 -0 -0 -0 -0 -0 -0 -0 -0 -0 nan
nan 1 1 1 1 1 1 0 0 0 0 -0 -0 -0 -0 0 0 0 0 0 0 0 0 0 0 0 0 0 0 0 0 0 0 0 0 0 0 0 0 -0 -0 -0 -0 -0 -0 -1 -1 -1 -1 -0 -0 nan
nan 0 0 0 0 0 0 -0 -0 -0 -0 0 0 0 0 0 0 0 0 0 0 0 0 0 0 0 0 0 0 0 0 0 0 0 0 0 0 0 0 -0 -0 -0 -0 0 -0 -1 -2 -1 -1 -1 -0 nan
nan 0 0 0 0 0 0 -0 0 0 0 0 0 0 0 0 0 0 0 0 0 0 0 0 0 0 0 0 0 0 0 0 0 0 0 0 0 -0 0 -0 -0 -0 0 0 -0 -1 -1 -1 -1 -1 -1 nan
nan 0 0 0 0 0 0 0 0 0 0 0 0 0 0 0 0 0 0 0 0 0 0 0 0 0 0 0 0 0 0 0 0 0 0 0 0 -0 0 -0 -0 -0 0 0 0 -0 -0 -0 -1 -1 -1 nan
nan 0 0 0 1 0 1 0 0 0 0 0 0 0 0 0 0 0 0 0 0 0 0 0 0 0 0 0 0 0 0 0 0 0 0 0 0 0 -0 -0 -0 -0 0 0 0 0 -0 -1 -1 -0 0 nan
nan 1 1 1 0 0 1 0 0 0 0 0 0 0 0 0 0 0 0 0 0 0 -0 0 0 0 0 0 0 0 0 0 0 0 0 0 0 0 0 -0 -0 -0 -0 0 0 1 0 -0 -0 -0 0 nan
nan nan nan nan nan nan nan nan nan nan nan nan nan nan nan nan nan nan nan nan nan nan nan nan nan nan nan nan nan nan nan nan nan nan nan nan nan nan nan nan nan nan nan nan nan nan nan nan nan nan nan nan
Wind_Speed
14 13 10 10 11 9 8 8 8 10 10 9 8 10 11 11 11 11 11 9 9 9 7 13 16 12 10 8 6 6 4 2 1 1 2 1 2 1 1 1 1 1 2 2 2 2 2 1 1 2 3 3
15 13 12 13 13 10 9 9 9 11 11 10 9 8 9 10 11 12 12 11 10 10 8 10 16 15 12 10 7 5 3 2 1 2 2 1 2 2 2 1 2 2 2 2 2 2 2 2 2 2 3 3
15 12 13 14 13 11 10 10 9 10 11 11 11 10 10 11 12 13 13 12 10 10 8 8 11 13 12 9 7 5 3 3 2 2 2 2 3 3 2 3 2 2 2 2 2 2 2 2 2 2 3 4
14 12 14 14 12 10 9 10 10 9 11 12 12 12 12 12 13 13 14 14 11 10 9 7 8 9 9 8 6 5 4 4 3 3 2 3 4 3 3 3 3 3 2 2 2 2 2 2 2 3 4 5
14 13 14 13 12 11 10 10 11 9 10 11 12 13 13 13 14 14 14 14 13 11 9 7 8 8 8 8 7 6 5 5 4 4 3 3 4 4 3 3 3 3 3 2 2 2 2 3 3 4 4 5
15 14 14 14 13 12 9 9 10 10 9 8 10 12 13 13 15 15 15 15 14 12 10 9 9 8 9 10 9 6 5 5 4 4 4 4 4 3 3 3 3 3 3 3 3 3 3 3 4 4 4 5
15 15 15 14 13 11 9 8 10 10 8 7 7 8 9 10 13 15 14 15 15 14 12 10 9 9 11 11 10 6 3 3 3 4 5 5 4 3 3 3 3 3 3 4 4 4 4 4 4 4 5 5
16 15 14 13 12 10 10 9 8 8 8 7 7 7 6 7 9 12 13 15 15 14 12 10 9 10 12 12 11 6 2 3 4 5 6 5 4 4 4 4 4 4 4 5 5 5 5 5 5 5 5 5
16 15 13 12 11 10 10 10 8 8 8 8 8 8 7 7 7 10 13 14 12 11 10 9 9 10 11 12 12 7 4 5 5 6 6 6 5 4 5 5 5 5 5 5 6 6 6 6 6 6 6 6
15 14 13 13 12 11 11 10 9 9 9 9 9 8 8 7 6 7 9 10 8 8 9 10 10 10 10 11 12 9 6 6 6 7 7 7 6 6 6 6 6 6 6 6 7 7 7 7 7 7 7 7
15 14 14 13 13 12 11 10 10 10 9 9 9 8 8 7 6 5 6 7 8 9 10 10 11 11 10 10 12 11 9 8 8 8 8 8 8 7 7 7 7 7 7 7 8 8 8 8 8 8 8 8
15 15 14 13 13 12 11 10 10 10 9 9 9 8 8 7 7 7 7 8 9 10 11 11 11 12 12 11 12 12 11 10 10 9 9 9 9 8 8 8 8 8 8 9 9 9 9 9 9 9 9 9
16 15 14 14 13 12 11 10 10 10 9 9 8 8 8 7 7 7 7 8 9 11 11 11 12 13 13 12 12 13 13 12 11 10 10 10 10 9 9 8 8 9 9 9 9 9 10 10 10 10 11 11
17 15 14 14 13 13 12 10 10 10 9 9 8 8 8 8 7 7 8 8 9 10 11 11 12 13 13 13 13 13 14 14 12 11 11 11 10 10 9 9 9 9 9 10 10 10 10 11 11 11 12 12
17 16 15 14 14 13 12 11 11 10 10 9 9 8 8 8 7 7 8 8 8 9 10 11 12 13 14 15 14 14 15 14 13 12 12 11 11 11 10 10 10 10 10 10 10 11 11 11 12 12 13 13
17 15 15 15 14 13 12 12 11 10 10 10 9 9 8 8 7 7 8 8 9 9 11 12 13 13 14 15 15 15 15 14 14 13 13 12 12 12 11 11 11 10 10 11 11 11 12 12 13 14 14 15
16 15 14 14 13 13 12 12 12 12 11 11 10 9 8 7 7 8 9 9 10 11 12 12 13 13 14 15 15 15 15 14 14 14 13 13 13 12 12 12 12 11 11 12 12 12 13 13 14 15 15 16
16 15 14 13 13 13 13 13 12 12 12 11 10 9 8 8 8 9 10 10 11 12 13 13 13 14 14 14 15 15 15 15 14 14 14 14 14 13 13 13 13 13 13 13 14 14 14 14 15 16 16 17
16 15 15 14 14 14 14 14 14 14 13 12 11 10 10 10 10 11 12 12 12 13 14 13 13 14 14 14 14 15 15 15 15 15 14 14 14 14 14 13 13 14 14 15 15 15 16 16 16 17 17 18
17 16 16 15 15 15 15 16 16 15 14 13 13 12 11 12 12 13 13 13 14 14 14 14 14 13 13 13 13 14 14 14 14 15 15 15 15 15 15 15 15 15 15 16 16 17 17 17 17 18 19 19
17 17 16 16 16 16 16 16 16 15 15 14 14 14 13 13 13 13 13 13 14 14 14 15 14 14 13 13 13 13 13 14 14 15 15 15 15 15 16 16 16 16 17 18 18 18 18 19 19 19 20 20
16 16 16 16 16 16 16 16 16 16 16 15 14 14 14 13 13 12 12 12 12 12 13 14 15 14 13 13 14 14 14 14 14 15 15 15 15 15 16 16 16 16 18 19 19 20 20 20 21 21 21 22
16 16 17 17 17 17 17 17 17 16 15 14 14 13 13 12 11 11 11 11 11 12 13 14 15 15 14 13 13 13 14 14 14 15 15 15 15 15 15 15 16 17 18 20 20 20 20 21 22 22 23 23
15 15 16 17 17 17 17 16 16 14 13 13 12 11 11 10 10 10 11 11 11 11 12 12 13 13 13 12 12 12 13 13 14 14 15 15 15 16 15 15 16 17 19 21 21 22 22 22 23 23 24 24
16 16 16 17 16 15 15 14 13 12 11 10 10 9 9 9 10 10 10 10 10 10 11 11 11 12 12 11 11 11 12 13 13 14 14 15 15 16 15 16 16 17 18 19 19 20 22 24 26 26 25 25
17 16 15 14 14 13 12 12 10 10 9 9 8 8 8 8 8 9 9 9 9 9 9 10 10 10 11 11 11 11 11 12 13 13 14 14 15 16 16 16 16 16 17 17 17 19 23 25 24 25 27 27
15 14 13 12 12 12 12 12 10 9 9 8 8 7 7 7 7 7 7 7 7 7 7 8 9 9 9 10 10 11 11 12 12 13 14 14 14 15 16 16 16 16 16 17 17 17 18 17 16 20 23 22
14 14 13 12 12 12 12 12 11 9 8 7 6 6 5 5 5 4 5 5 5 5 6 7 7 8 8 9 9 10 11 11 12 13 13 13 14 15 15 15 16 16 15 16 16 13 11 11 13 15 13 14
15 14 14 13 13 12 11 11 10 9 7 6 5 5 4 3 3 3 3 4 4 5 5 6 6 7 8 8 9 10 11 11 12 13 13 14 14 15 15 15 16 15 15 15 15 14 13 11 11 10 9 13
13 13 13 13 13 13 12 11 10 8 7 6 5 4 3 2 1 2 2 3 4 4 5 6 6 7 8 8 9 10 11 11 12 13 14 14 14 15 16 16 16 16 16 16 16 16 16 15 15 17 18 19
12 12 13 12 12 12 12 11 10 8 7 6 4 3 2 1 0 1 2 2 3 4 5 5 6 6 7 7 8 9 10 11 12 12 13 14 15 16 17 17 17 17 17 17 16 17 19 19 20 22 23 21
Wind_Direction
200 205 216 230 224 232 241 231 224 223 224 216 202 185 183 189 188 184 186 191 190 202 199 184 203 230 243 255 281 282 260 254 263 188 202 193 217 249 35 302 310 310 320 327 316 309 293 282 259 206 173 145
206 210 225 226 219 235 251 245 249 245 241 240 234 221 206 201 197 194 198 202 202 211 214 193 200 219 240 258 270 266 249 247 241 220 221 180 154 138 154 234 270 291 302 305 301 297 289 270 255 229 192 163
208 217 227 224 228 245 248 242 252 255 249 249 251 251 237 220 207 202 208 212 212 218 223 214 210 219 236 255 263 254 244 240 233 227 209 157 144 152 192 228 245 268 278 289 295 287 287 268 255 236 212 201
216 227 227 222 231 242 249 244 246 261 263 254 252 256 250 235 220 211 216 220 222 227 232 237 232 232 242 257 264 253 243 236 228 223 199 165 161 180 210 229 238 247 256 263 281 283 284 274 261 243 230 221
222 227 224 225 239 250 259 248 246 268 274 259 254 260 258 244 230 221 221 224 229 235 242 254 253 249 254 263 265 255 242 230 222 212 197 180 183 199 216 233 243 253 262 261 263 270 276 270 263 249 241 234
223 225 227 235 248 260 265 250 249 265 277 269 259 261 258 248 238 231 227 226 232 238 247 260 261 260 262 265 266 265 257 238 220 201 193 195 197 203 216 233 248 259 264 265 264 258 258 256 255 253 245 242
223 227 232 240 248 260 265 258 253 260 280 288 277 275 265 255 246 236 229 228 232 237 246 254 256 262 266 264 261 269 279 232 198 197 201 203 202 205 218 235 245 251 257 258 260 255 251 249 247 248 243 239
223 228 234 241 249 257 259 261 259 262 282 295 299 299 289 279 263 245 237 235 234 235 239 247 256 266 268 259 250 255 258 199 195 211 216 214 210 212 224 235 243 245 252 253 256 255 251 250 246 243 241 235
222 230 237 243 250 256 255 259 266 272 284 294 300 301 300 298 279 255 242 233 229 232 239 249 257 265 266 255 245 245 235 207 210 225 230 230 224 224 232 238 245 245 247 250 252 253 251 249 243 239 237 232
225 231 238 244 250 255 254 255 263 272 281 290 297 297 297 298 285 259 242 234 233 241 248 251 254 256 258 253 245 242 235 222 222 231 237 240 236 234 237 239 243 245 246 248 249 251 251 249 244 238 237 232
226 231 237 244 250 254 254 255 260 267 278 290 293 290 291 294 288 275 263 262 263 261 255 250 251 251 250 247 243 239 236 232 229 234 238 241 240 239 239 241 243 244 245 246 246 248 248 247 245 240 237 233
227 232 238 244 248 252 252 253 258 265 275 284 285 282 284 286 287 290 287 279 273 269 264 256 251 249 247 243 238 235 234 235 236 238 241 243 244 243 242 242 243 245 246 247 246 246 246 246 246 244 240 237
230 234 239 244 247 249 250 252 256 263 271 277 281 283 285 283 283 289 286 278 271 271 271 267 260 253 248 245 239 235 233 235 239 243 247 248 249 249 249 248 248 248 248 248 249 247 248 247 247 247 245 243
231 235 239 244 246 248 250 253 256 261 268 274 281 287 291 288 280 275 272 269 265 266 271 272 268 261 255 250 244 240 236 236 241 246 250 252 253 254 254 253 251 251 251 251 252 251 250 249 248 247 247 246
230 233 236 240 243 246 249 253 256 261 267 274 279 284 286 284 276 268 264 263 260 260 265 268 268 265 259 254 249 244 240 239 243 248 252 253 253 254 254 254 254 254 255 255 255 255 253 252 250 249 248 247
229 231 233 236 238 242 246 250 254 257 264 269 273 277 275 271 267 260 256 255 256 257 259 263 264 263 260 257 253 248 244 242 245 250 252 253 252 253 254 255 256 257 258 258 258 257 256 254 253 252 250 250
226 228 228 231 233 237 241 244 249 253 259 265 270 272 265 259 254 249 249 248 251 254 256 260 262 264 262 259 254 250 246 245 248 251 253 253 253 253 254 256 257 258 260 258 257 255 255 253 253 252 251 250
220 223 224 226 229 233 237 240 245 248 252 258 261 260 251 245 242 242 244 246 248 251 255 259 261 263 261 257 252 247 246 246 249 252 253 254 254 254 255 258 259 260 261 260 259 257 254 252 251 250 250 249
212 217 219 222 226 229 232 234 237 240 241 244 246 243 236 235 238 240 243 244 246 246 248 252 254 256 255 252 248 244 244 246 250 253 254 255 256 257 257 258 259 261 262 261 261 259 256 254 252 251 250 250
205 210 215 219 222 224 227 229 231 232 235 238 240 240 238 240 242 244 246 246 246 243 241 240 242 244 245 244 243 242 244 246 250 252 254 254 255 258 259 260 260 262 263 263 262 261 259 257 255 253 252 252
198 205 211 215 219 221 223 225 227 229 232 235 237 242 244 246 246 246 246 246 246 243 239 236 234 234 235 236 237 238 241 244 247 249 252 255 256 258 260 262 264 266 267 265 263 261 259 257 255 253 252 251
192 199 205 210 214 217 218 221 223 225 228 231 234 240 244 246 247 247 247 247 247 244 241 237 234 231 228 230 232 233 235 238 242 244 247 251 256 259 260 263 265 266 267 265 263 261 259 258 256 254 253 252
186 192 199 205 209 211 214 216 219 222 225 228 232 237 241 244 244 246 246 245 245 241 239 237 235 232 229 228 228 229 230 231 236 240 242 246 252 257 259 261 261 262 264 265 264 262 260 260 260 258 256 254
180 188 195 200 204 206 208 211 214 218 222 225 228 232 233 236 238 240 241 241 240 237 235 236 236 236 235 233 231 230 229 230 234 238 240 243 246 252 256 257 258 260 262 265 267 267 266 264 262 261 261 260
173 183 192 196 198 200 202 204 209 211 214 217 218 221 224 228 232 233 235 237 237 236 236 237 239 241 242 242 242 240 237 237 240 242 244 246 247 251 256 260 262 263 266 270 274 274 271 268 267 266 265 265
174 179 185 190 191 193 195 192 196 198 198 201 204 211 217 222 226 229 232 235 236 237 238 240 242 244 244 245 247 248 247 247 248 251 253 255 257 260 263 266 268 269 272 275 278 279 278 277 276 272 269 267
170 172 172 177 177 177 181 177 177 183 183 186 193 201 209 214 221 225 231 235 239 243 244 247 249 250 250 249 249 250 251 251 252 254 257 259 263 265 267 270 270 270 272 274 278 283 286 287 286 280 277 273
157 158 159 165 165 165 172 169 166 172 174 178 185 190 195 204 212 220 230 238 246 251 253 257 257 258 259 257 256 256 255 256 256 257 259 261 265 268 269 272 273 272 272 275 279 280 280 285 285 284 283 275
153 154 154 156 156 157 163 161 159 163 165 166 175 182 183 191 203 219 235 248 256 261 264 264 264 265 266 265 264 264 263 262 262 262 263 264 267 270 272 273 275 277 275 274 275 272 272 279 279 276 279 285
148 153 154 154 154 154 156 157 153 152 151 151 157 165 166 178 203 238 251 263 266 267 269 269 269 269 268 269 268 268 268 267 267 266 266 266 267 269 272 274 275 276 275 274 273 271 270 267 265 267 275 284
147 151 151 155 157 154 154 152 143 135 135 134 129 126 120 114 46 295 287 286 282 279 279 277 277 278 276 277 275 274 274 273 273 272 271 270 270 270 271 273 273 273 272 273 272 269 267 264 264 268 270 274
Height
1551 1552 1554 1555 1556 1557 1557 1557 1557 1557 1558 1558 1559 1560 1561 1561 1562 1562 1562 1561 1561 1561 1561 1562 1562 1562 1562 1562 1562 1562 1562 1562 1562 1562 1561 1561 1561 1561 1562 1562 1563 1563 1563 1563 1563 1563 1564 1564 1564 1564 1564 1564
1551 1552 1554 1555 1555 1556 1557 1557 1557 1557 1558 1558 1559 1560 1560 1561 1561 1561 1561 1561 1560 1560 1560 1561 1562 1561 1561 1561 1562 1562 1561 1561 1561 1561 1561 1561 1561 1561 1562 1562 1562 1563 1563 1563 1563 1563 1564 1564 1564 1563 1563 1564
1551 1552 1553 1554 1555 1556 1556 1556 1557 1557 1557 1558 1559 1559 1560 1560 1560 1561 1561 1561 1560 1560 1560 1561 1561 1561 1561 1561 1561 1561 1561 1561 1561 1561 1561 1561 1561 1561 1562 1562 1562 1562 1562 1563 1563 1563 1563 1563 1563 1563 1563 1563
1550 1552 1553 1554 1554 1555 1556 1556 1556 1557 1557 1557 1558 1559 1559 1559 1560 1560 1560 1560 1560 1560 1560 1560 1560 1560 1560 1560 1560 1560 1560 1561 1561 1561 1561 1561 1561 1561 1561 1561 1561 1561 1562 1562 1563 1563 1563 1563 1563 1563 1563 1563
1550 1551 1552 1553 1554 1554 1555 1555 1555 1556 1557 1557 1558 1558 1558 1559 1559 1559 1560 1560 1560 1560 1560 1560 1560 1560 1559 1560 1560 1560 1560 1561 1561 1561 1561 1561 1561 1561 1561 1561 1561 1561 1561 1562 1562 1563 1563 1563 1563 1563 1563 1563
1549 1551 1552 1552 1553 1553 1554 1554 1555 1555 1556 1557 1557 1557 1557 1558 1558 1558 1559 1559 1559 1560 1560 1559 1559 1559 1559 1559 1559 1560 1560 1560 1561 1561 1561 1561 1560 1560 1560 1560 1560 1561 1561 1561 1562 1562 1562 1563 1563 1563 1563 1563
1549 1550 1551 1551 1552 1552 1553 1553 1554 1555 1556 1556 1557 1557 1556 1556 1556 1557 1557 1558 1558 1559 1559 1559 1558 1558 1558 1559 1559 1560 1560 1560 1560 1560 1560 1560 1560 1559 1559 1560 1560 1560 1561 1561 1561 1562 1562 1562 1562 1562 1563 1563
1548 1549 1550 1550 1551 1551 1552 1553 1554 1554 1555 1555 1556 1556 1555 1555 1555 1556 1556 1557 1557 1558 1558 1558 1558 1558 1558 1558 1559 1559 1559 1560 1560 1560 1559 1559 1559 1559 1559 1559 1559 1560 1560 1561 1561 1561 1561 1561 1562 1562 1562 1563
1547 1548 1548 1549 1550 1551 1551 1552 1553 1554 1554 1554 1555 1555 1554 1554 1554 1555 1555 1556 1556 1557 1557 1557 1557 1557 1557 1557 1558 1559 1559 1559 1559 1559 1559 1559 1559 1559 1559 1559 1559 1560 1560 1560 1560 1561 1561 1561 1561 1561 1562 1562
1546 1547 1548 1548 1549 1550 1551 1552 1552 1553 1553 1553 1553 1553 1553 1554 1554 1554 1554 1555 1555 1555 1555 1556 1556 1556 1557 1557 1558 1559 1559 1558 1558 1558 1558 1558 1558 1558 1558 1558 1559 1559 1559 1559 1560 1560 1560 1560 1560 1560 1561 1561
1545 1546 1547 1548 1549 1549 1550 1551 1551 1552 1552 1553 1552 1553 1553 1553 1553 1553 1553 1553 1554 1554 1554 1555 1555 1556 1556 1556 1557 1558 1558 1558 1558 1558 1557 1558 1558 1558 1558 1558 1558 1558 1558 1559 1559 1559 1559 1559 1559 1559 1560 1560
1544 1545 1546 1547 1548 1549 1549 1550 1551 1551 1551 1552 1552 1552 1552 1552 1552 1552 1552 1552 1552 1553 1553 1554 1555 1555 1556 1556 1556 1556 1557 1557 1557 1557 1557 1557 1557 1557 1557 1557 1557 1557 1557 1558 1558 1558 1558 1558 1558 1558 1559 1559
1542 1543 1545 1546 1547 1548 1548 1549 1550 1550 1551 1551 1551 1551 1551 1551 1551 1551 1551 1551 1552 1552 1553 1553 1554 1554 1555 1555 1555 1555 1555 1555 1555 1556 1556 1556 1556 1556 1556 1556 1556 1556 1556 1556 1557 1557 1557 1557 1557 1557 1557 1558
1541 1542 1544 1545 1546 1547 1547 1548 1549 1549 1550 1550 1550 1550 1550 1550 1550 1550 1550 1551 1551 1551 1552 1552 1553 1553 1553 1553 1553 1554 1554 1554 1554 1554 1555 1555 1555 1555 1555 1555 1555 1555 1555 1555 1555 1555 1556 1556 1556 1556 1556 1556
1540 1542 1543 1544 1545 1545 1546 1547 1548 1548 1549 1549 1549 1549 1549 1549 1549 1549 1549 1550 1550 1550 1551 1551 1551 1552 1552 1552 1552 1552 1552 1553 1553 1553 1554 1554 1554 1554 1554 1554 1554 1554 1554 1554 1554 1554 1554 1554 1554 1554 1555 1555
1539 1540 1541 1543 1543 1544 1545 1546 1546 1547 1547 1548 1548 1548 1548 1548 1548 1548 1548 1548 1549 1549 1549 1549 1549 1550 1550 1550 1551 1551 1551 1551 1552 1552 1552 1553 1553 1553 1552 1552 1552 1552 1552 1552 1552 1552 1552 1553 1553 1553 1553 1553
1538 1539 1540 1541 1542 1543 1544 1545 1545 1546 1546 1546 1546 1546 1546 1546 1546 1546 1547 1547 1547 1547 1547 1547 1547 1548 1548 1548 1549 1549 1550 1550 1550 1551 1551 1551 1551 1551 1551 1551 1551 1551 1551 1551 1551 1551 1551 1551 1551 1551 1551 1551
1536 1538 1539 1540 1541 1542 1543 1543 1544 1544 1544 1544 1544 1544 1544 1544 1544 1544 1544 1544 1545 1545 1545 1546 1546 1546 1546 1547 1547 1548 1548 1549 1549 1549 1549 1549 1549 1549 1549 1549 1549 1549 1549 1549 1549 1549 1549 1549 1549 1549 1549 1549
1534 1536 1537 1538 1539 1540 1541 1541 1542 1542 1542 1542 1542 1542 1542 1542 1542 1542 1542 1542 1542 1543 1543 1544 1544 1544 1544 1545 1545 1546 1546 1547 1547 1548 1548 1548 1548 1548 1548 1548 1548 1548 1547 1547 1547 1547 1547 1547 1547 1547 1547 1547
1532 1533 1535 1536 1537 1537 1538 1538 1539 1539 1539 1540 1540 1540 1540 1540 1540 1540 1540 1541 1541 1541 1541 1541 1541 1542 1542 1543 1543 1544 1545 1545 1546 1546 1546 1546 1546 1546 1546 1546 1546 1546 1545 1545 1545 1545 1545 1545 1545 1545 1545 1545
1529 1531 1532 1533 1534 1535 1535 1536 1536 1537 1537 1538 1538 1538 1538 1539 1539 1539 1539 1539 1539 1540 1540 1540 1540 1540 1540 1541 1541 1542 1543 1544 1544 1544 1544 1544 1544 1544 1544 1544 1544 1544 1544 1543 1543 1543 1543 1543 1543 1543 1542 1542
1528 1529 1530 1531 1532 1533 1533 1534 1534 1535 1535 1536 1536 1536 1537 1537 1537 1538 1538 1538 1539 1539 1539 1539 1539 1539 1539 1539 1540 1540 1541 1541 1542 1542 1542 1542 1542 1542 1542 1542 1542 1542 1542 1541 1541 1540 1540 1540 1540 1540 1540 1540
1526 1527 1528 1529 1530 1530 1531 1532 1532 1533 1534 1534 1535 1535 1536 1536 1536 1537 1537 1537 1538 1538 1538 1538 1538 1538 1538 1538 1538 1538 1538 1539 1539 1539 1539 1539 1540 1540 1540 1541 1540 1540 1539 1539 1538 1538 1538 1538 1537 1537 1537 1537
1525 1525 1526 1527 1527 1528 1529 1530 1531 1532 1532 1533 1534 1534 1535 1535 1536 1536 1536 1536 1537 1537 1537 1537 1537 1537 1537 1537 1537 1537 1537 1537 1537 1537 1537 1537 1538 1538 1538 1539 1538 1538 1537 1537 1537 1536 1536 1536 1535 1535 1534 1534
1522 1523 1524 1525 1526 1527 1528 1529 1530 1531 1532 1532 1533 1534 1534 1534 1535 1535 1535 1535 1536 1536 1536 1536 1536 1536 1536 1537 1537 1537 1536 1536 1536 1536 1536 1536 1536 1536 1536 1537 1537 1537 1536 1535 1535 1535 1534 1533 1533 1533 1533 1532
1521 1521 1523 1524 1525 1526 1527 1528 1529 1530 1531 1532 1532 1533 1534 1534 1534 1534 1534 1534 1535 1535 1535 1535 1535 1535 1535 1536 1536 1536 1536 1535 1535 1535 1535 1535 1535 1535 1535 1535 1536 1535 1535 1534 1534 1533 1532 1531 1531 1530 1530 1530
1521 1522 1523 1524 1525 1526 1527 1528 1529 1529 1530 1531 1532 1532 1533 1533 1533 1533 1534 1534 1534 1534 1534 1534 1534 1534 1535 1535 1535 1535 1535 1534 1534 1534 1534 1534 1534 1533 1534 1534 1534 1534 1533 1533 1532 1531 1530 1530 1529 1528 1527 1527
1521 1522 1523 1524 1524 1525 1526 1527 1528 1529 1529 1530 1531 1532 1532 1532 1533 1533 1533 1533 1533 1533 1533 1533 1533 1533 1534 1534 1534 1534 1533 1533 1533 1532 1532 1532 1532 1531 1532 1532 1532 1532 1532 1531 1531 1530 1530 1529 1528 1527 1527 1525
1521 1522 1523 1524 1524 1525 1526 1526 1527 1528 1529 1530 1530 1531 1531 1532 1532 1532 1532 1532 1532 1532 1532 1532 1532 1532 1532 1532 1532 1532 1532 1532 1531 1531 1531 1531 1530 1530 1529 1530 1530 1530 1530 1530 1530 1529 1529 1528 1527 1526 1525 1523
1522 1522 1523 1523 1524 1525 1525 1526 1527 1528 1528 1529 1530 1530 1531 1531 1531 1532 1531 1531 1531 1531 1531 1531 1531 1531 1531 1531 1531 1530 1530 1530 1530 1529 1529 1529 1528 1528 1527 1527 1528 1528 1528 1528 1528 1528 1527 1527 1526 1524 1523 1523
1523 1523 1523 1524 1524 1525 1525 1526 1526 1527 1528 1528 1529 1530 1530 1530 1531 1531 1531 1531 1531 1530 1530 1530 1530 1529 1529 1529 1529 1529 1528 1528 1528 1528 1527 1527 1526 1526 1525 1525 1525 1526 1526 1525 1525 1525 1524 1524 1524 1523 1522 1522